User: anonymous
Location: Unspecified
(0.0000°N, 0.0000°E)
Time: 14:00:12
(UTC+02:00)
Language:

Iridium 4 Rocket - Orbit

View from above orbital plane
View from above orbital plane
View from above satellite
View from above satellite

Ground track
Ground track

The orbit data is extracted from the following two-line orbital elements,

1 24797U 97020F   14293.26601223  .00000973  00000-0  20770-3 0  8018
2 24797 086.8977 348.7879 0225568 313.5733 109.7365 14.43228143917858
Epoch (UTC): 20 October 2014 06:23:03
Eccentricity: 0.0225568
inclination: 86.8977°
perigee height: 587 km
apogee height: 908 km
right ascension of ascending node: 348.7879°
argument of perigee: 313.5733°
revolutions per day: 14.43228143
mean anomaly at epoch: 109.7365°
orbit number at epoch: 91785

The dashed part of the orbit path shows where the satellite is in the earth's shadow,  

DLR